TimeCEST,TemperatureF,Dew PointF,Humidity,Sea Level PressureIn,VisibilityMPH,Wind Direction,Wind SpeedMPH,Gust SpeedMPH,PrecipitationIn,Events,Conditions,WindDirDegrees,DateUTC
12:20 AM,77.0,50.0,39,30.06,-9999.0,ENE,3.5,-,N/A,,Clear,60,2013-07-05 22:20:00
12:50 AM,77.0,50.0,39,30.06,-9999.0,NE,4.6,-,N/A,,Clear,50,2013-07-05 22:50:00
1:20 AM,77.0,51.8,41,30.06,-9999.0,North,5.8,-,N/A,,Clear,360,2013-07-05 23:20:00
1:50 AM,77.0,51.8,41,30.06,-9999.0,North,5.8,-,N/A,,Clear,360,2013-07-05 23:50:00
2:20 AM,77.0,51.8,41,30.06,-9999.0,NE,6.9,-,N/A,,Clear,40,2013-07-06 00:20:00
2:50 AM,77.0,51.8,41,30.06,-9999.0,North,4.6,-,N/A,,Clear,10,2013-07-06 00:50:00
3:20 AM,77.0,51.8,41,30.06,-9999.0,North,4.6,-,N/A,,Clear,10,2013-07-06 01:20:00
3:50 AM,75.2,51.8,44,30.06,-9999.0,Variable,1.2,-,N/A,,Clear,0,2013-07-06 01:50:00
4:20 AM,71.6,53.6,53,30.06,-9999.0,NW,4.6,-,N/A,,Clear,320,2013-07-06 02:20:00
4:50 AM,75.2,53.6,47,30.04,-9999.0,NNW,5.8,-,N/A,,Clear,340,2013-07-06 02:50:00
5:20 AM,77.0,51.8,41,30.04,-9999.0,NNW,6.9,-,N/A,,Clear,340,2013-07-06 03:20:00
5:50 AM,75.2,53.6,47,30.06,-9999.0,North,5.8,-,N/A,,Clear,10,2013-07-06 03:50:00
6:20 AM,73.4,53.6,50,30.06,-9999.0,North,4.6,-,N/A,,Clear,360,2013-07-06 04:20:00
6:50 AM,77.0,55.4,47,30.06,-9999.0,North,4.6,-,N/A,,Clear,10,2013-07-06 04:50:00
7:20 AM,78.8,55.4,44,30.06,-9999.0,NNE,5.8,-,N/A,,Clear,20,2013-07-06 05:20:00
7:50 AM,78.8,55.4,44,30.06,-9999.0,NNE,6.9,-,N/A,,Clear,30,2013-07-06 05:50:00
8:20 AM,80.6,57.2,45,30.06,-9999.0,NE,9.2,-,N/A,,Clear,50,2013-07-06 06:20:00
8:50 AM,82.4,57.2,42,30.06,-9999.0,NE,10.4,-,N/A,,Clear,50,2013-07-06 06:50:00
9:20 AM,82.4,55.4,39,30.06,-9999.0,ENE,10.4,-,N/A,,Clear,60,2013-07-06 07:20:00
9:50 AM,82.4,55.4,39,30.06,-9999.0,NE,9.2,-,N/A,,Clear,50,2013-07-06 07:50:00
10:20 AM,84.2,55.4,37,30.06,-9999.0,NNE,10.4,-,N/A,,Clear,30,2013-07-06 08:20:00
10:50 AM,86.0,57.2,37,30.06,-9999.0,NE,10.4,-,N/A,,Clear,40,2013-07-06 08:50:00
11:20 AM,87.8,57.2,35,30.06,-9999.0,NE,10.4,-,N/A,,Clear,40,2013-07-06 09:20:00
11:50 AM,87.8,55.4,33,30.06,-9999.0,NE,11.5,-,N/A,,Clear,40,2013-07-06 09:50:00
12:20 PM,87.8,57.2,35,30.06,-9999.0,NE,10.4,-,N/A,,Clear,50,2013-07-06 10:20:00
12:50 PM,87.8,57.2,35,30.04,6.2,NNE,10.4,-,N/A,,Partly Cloudy,30,2013-07-06 10:50:00
1:20 PM,89.6,57.2,33,30.04,6.2,NNE,12.7,-,N/A,,Partly Cloudy,30,2013-07-06 11:20:00
1:50 PM,89.6,55.4,31,30.04,6.2,NE,11.5,-,N/A,,Partly Cloudy,40,2013-07-06 11:50:00
2:20 PM,91.4,53.6,28,30.04,6.2,NNE,12.7,-,N/A,,Partly Cloudy,30,2013-07-06 12:20:00
2:50 PM,89.6,55.4,31,30.04,6.2,ENE,9.2,-,N/A,,Partly Cloudy,60,2013-07-06 12:50:00
3:20 PM,89.6,55.4,31,30.04,6.2,ENE,9.2,-,N/A,,Scattered Clouds,70,2013-07-06 13:20:00
3:50 PM,91.4,53.6,28,30.01,6.2,ENE,9.2,-,N/A,,Scattered Clouds,70,2013-07-06 13:50:00
4:20 PM,84.2,59.0,42,30.04,6.2,NW,9.2,-,N/A,Thunderstorm,Thunderstorm,310,2013-07-06 14:20:00
4:50 PM,82.4,60.8,48,30.04,6.2,West,8.1,-,N/A,,Mostly Cloudy,280,2013-07-06 14:50:00
5:20 PM,75.2,68.0,78,30.04,6.2,West,8.1,-,N/A,Rain,Light Rain,260,2013-07-06 15:20:00
5:50 PM,80.6,68.0,65,30.04,6.2,West,8.1,-,N/A,,Mostly Cloudy,280,2013-07-06 15:50:00
6:20 PM,78.8,64.4,61,30.04,6.2,WNW,8.1,-,N/A,Rain,Light Rain,300,2013-07-06 16:20:00
6:50 PM,80.6,66.2,61,30.04,6.2,North,4.6,-,N/A,,Mostly Cloudy,360,2013-07-06 16:50:00
7:00 PM,80.6,64.4,58,30.04,-9999.0,North,-9999.0,-,N/A,,Mostly Cloudy,0,2013-07-06 17:00:00
7:20 PM,80.6,64.4,58,30.04,-9999.0,North,-9999.0,-,N/A,,Mostly Cloudy,0,2013-07-06 17:20:00
7:50 PM,78.8,64.4,61,30.04,6.2,Variable,1.2,-,N/A,,Scattered Clouds,0,2013-07-06 17:50:00
8:20 PM,78.8,66.2,65,30.04,-9999.0,Calm,Calm,-,N/A,,Clear,0,2013-07-06 18:20:00
8:50 PM,78.8,60.8,54,30.04,-9999.0,North,3.5,-,N/A,,Clear,360,2013-07-06 18:50:00
9:50 PM,77.0,66.2,69,30.04,-9999.0,East,2.3,-,N/A,,Clear,100,2013-07-06 19:50:00
10:20 PM,75.2,66.2,73,30.06,-9999.0,Variable,2.3,-,N/A,,Clear,0,2013-07-06 20:20:00
10:50 PM,77.0,62.6,61,30.06,-9999.0,NE,4.6,-,N/A,,Clear,40,2013-07-06 20:50:00
11:20 PM,77.0,62.6,61,30.06,-9999.0,ENE,8.1,-,N/A,,Clear,60,2013-07-06 21:20:00
11:50 PM,77.0,60.8,57,30.06,-9999.0,ENE,5.8,-,N/A,,Clear,60,2013-07-06 21:50:00